Location: Taukkyan
(23.1052°N, 94.0030°E)
Time: 11:49:52
(UTC+00:00)

Cosmos 1674 Rocket - Pass Details

Date: 06 July 2020
Orbit: 602 x 631 km, 82.5° (Epoch: 14 August)

Event Time Altitude Azimuth Distance (km) Brightness Sun altitude
Rises 21:38:46 0° 353° (N) 2,871 7.4 -17.8°
Reaches altitude 10° 21:40:59 10° 353° (N) 1,960 6.5 -17.4°
Maximum altitude 21:45:19 82° 267° (W) 615 3.4 -16.6°
Drops below altitude 10° 21:49:37 10° 179° (S) 1,939 5.8 -15.8°
Enters shadow 21:49:49 - 179° (S) 2,020 5.9 -15.7°
